This demonstration page uses our WeatherBlox Daily Observations layout. Learn more.

Left ArrowRight Arrow

Hourly Observations for April 22, 2019

Temp ( °F °C ) Dew Point ( °F °C ) Humidity (%) Winds ( mph kmh ) Pressure ( in mb ) Visibility ( mi km ) Precip ( " mm )
12:53 am 00:53 Clear 49 9.4 46 7.8 90 90 Calm 30.16 1021 10 16 0.00 0.00
1:53 am 01:53 Clear 47 8.3 46 7.8 97 97 Calm 30.16 1021 10 16 0.00 0.00
2:53 am 02:53 Clear 46 7.8 45 7.2 96 96 Calm 30.15 1021 10 16 0.00 0.00
3:53 am 03:53 Clear 45 7.2 45 7.2 100 100 Calm 30.15 1021 10 16 0.00 0.00
4:53 am 04:53 Clear 44 6.7 43 6.1 96 96 Calm 30.16 1021 10 16 0.00 0.00
5:53 am 05:53 Clear 44 6.7 44 6.7 100 100 Calm 30.17 1022 10 16 0.00 0.00
6:53 am 06:53 Clear 44 6.7 43 6.1 96 96 Calm 30.18 1022 10 16 0.00 0.00
7:53 am 07:53 Sunny 46 7.8 45 7.2 96 96 NNE 3 6 30.20 1023 10 16 0.00 0.00
8:53 am 08:53 Sunny 52 11.1 48 8.9 86 86 NE 3 6 30.21 1023 10 16 0.00 0.00
9:53 am 09:53 Sunny 59 15 50 10 72 72 Calm 30.21 1023 10 16 0.00 0.00
10:53 am 10:53 Sunny 68 20 46 7.8 45 45 WNW 5 7 30.21 1023 10 16 0.00 0.00
11:53 am 11:53 Sunny 72 22.2 42 5.6 34 34 VRB 5 7 30.20 1023 10 16 0.00 0.00
12:53 pm 12:53 Sunny 75 23.9 39 3.9 27 27 NW 9 15 30.19 1022 10 16 0.00 0.00
1:53 pm 13:53 Sunny 77 25 38 3.3 24 24 VRB 6 9 30.17 1022 10 16 0.00 0.00
2:53 pm 14:53 Sunny 78 25.6 40 4.4 26 26 Calm 30.14 1021 10 16 0.00 0.00
3:53 pm 15:53 Sunny 80 26.7 42 5.6 26 26 W 5 7 30.12 1020 10 16 0.00 0.00
5:53 pm 17:53 Sunny 80 26.7 44 6.7 28 28 WNW 6 9 30.11 1020 10 16 0.00 0.00
6:53 pm 18:53 Sunny 80 26.7 44 6.7 28 28 WNW 5 7 30.11 1020 10 16 0.00 0.00
7:53 pm 19:53 Sunny 75 23.9 51 10.6 43 43 Calm 30.10 1019 10 16 0.00 0.00
8:53 pm 20:53 Clear 68 20 53 11.7 59 59 Calm 30.11 1020 10 16 0.00 0.00
9:53 pm 21:53 Clear 63 17.2 55 12.8 76 76 Calm 30.12 1020 10 16 0.00 0.00
10:53 pm 22:53 Clear 59 15 55 12.8 87 87 Calm 30.13 1020 10 16 0.00 0.00
11:53 pm 23:53 Clear 57 13.9 54 12.2 90 90 Calm 30.14 1021 10 16 0.00 0.00

Powered by AerisWeather